Location: Ailly
(50.0793°N, 1.9944°E)
Time: 01:57:50
(UTC+00:00)

Cosmos 540 Rocket - Pass Details

Date: 15 January 2026
Orbit: 736 x 746 km, 74.1° (Epoch: 6 February)

Event Time Altitude Azimuth Distance (km) Brightness Sun altitude
Exits shadow 06:52:38 - 331° (NNW) 2,823 6.0 -8.2°
Reaches altitude 10° 06:54:07 10° 328° (NNW) 2,252 5.4 -8.0°
Maximum altitude 06:59:02 51° 253° (WSW) 924 3.7 -7.3°
Drops below altitude 10° 07:03:56 10° 179° (S) 2,239 6.3 -6.6°
Sets 07:06:19 0° 174° (S) 3,159 7.2 -6.2°
